NOAA 16 DEB, 41507

Orbit data source: Space-Track

NOAA 16 DEB, 41507 is space debris in SSO originally from a launch on Thu, 21 Sep 2000 UTC launched from the Air Force Western Test Range (AFWTR). Debris objects in space refer to the collection of defunct objects orbiting the Earth. Examples of debris include non-operational satellites, rocket bodies, and fragments generated from explosions, collisions, or faulty payload assembly.

Loading next visibility...
Identifier
41507, 2000-055MF
Orbit
SSO
Country
Flag of USUS
Related business
Manufacturer
Unknown
Mission
Spacecraft
Bus & Motor
Unknown
Mass
Unknown
Launch date (UTC)
2000-09-21 (26 years ago)
Launch vehicle
Unknown
Launch site
Air Force Western Test Range (AFWTR)
Object type
Payload
Rocket body
Debris
Shape & HBR
Unknown shape, 0.1 m
Radar Cross Section
Medium (>0.1 m² and <1 m²)

Expand to show TLE details & history
Last TLE update: 9 hours ago

TLE from 9 hours ago
0 NOAA 16 DEB
1 41507U 00055MF  26254.49649115  .00008893  00000-0  16049-2 0  9995
2 41507  98.9205  87.7092 0010287 170.7734 189.3659 14.66697827 75517
Epoch: 2026-09-11T11:54Z
TLE epoch observation values (Epoch: 2026-09-11T11:54:56.835Z)
Latitude
0.00005°
Longitude
-81.54663°
Altitude
681.758 km
Speed
7.512 km/s
True Right ascension
05h 50m 50s
True Declination
0° 00' 00"
Sunlit
Object was in daylight at epoch
Visualization orbit readout
Latitude
Unknown
Longitude
Unknown
Altitude
Unknown
Speed
Unknown
Apparent Right ascension
Unknown
Apparent Declination
Unknown
Sunlit
N/A
Visualization observer readout
Local Sidereal Time
13:00:12
Azimuth
Unknown
Elevation
Unknown
Doppler factor
Unknown
Orbital elements
Apogee altitude
675.986 km
Perigee altitude
661.487 km
Semi-major axis
7,046.874 km
Eccentricity
0.00103
Inclination
98.9205°
RAAN
87.7092°
Arg. of periapsis
170.7734°
True anomaly
189.34674°
Mean anomaly
189.3659°
Eccentric anomaly
189.35632°
Mean motion
3.66901 °/min
Orbital period
98.12 mins
BSTAR
0.0016049
Loading maneuver chart data...
Computing Atmospheric mass density...
Loading historical data...
Loading historical data...
Loading historical data...
Loading historical data...
Loading historical data...
Loading historical data...
Loading historical data...

Documentation

Showing up to 5 results
|